Year,Month,Day,Hour,Minute,Value (Times are PST for windspeed in km/hr)
2016,03,11,00,00,11.40
2016,03,11,00,01,11.00
2016,03,11,00,02,9.80
2016,03,11,00,03,9.80
2016,03,11,00,04,11.10
2016,03,11,00,05,8.60
2016,03,11,00,06,8.40
2016,03,11,00,07,7.20
2016,03,11,00,08,7.30
2016,03,11,00,09,6.90
2016,03,11,00,10,6.10
2016,03,11,00,11,6.30
2016,03,11,00,12,5.70
2016,03,11,00,13,5.90
2016,03,11,00,14,8.30
2016,03,11,00,15,11.40
2016,03,11,00,16,11.40
2016,03,11,00,17,8.80
2016,03,11,00,18,6.20
2016,03,11,00,19,4.50
2016,03,11,00,20,5.80
2016,03,11,00,21,6.80
2016,03,11,00,22,10.70
2016,03,11,00,23,7.80
2016,03,11,00,24,5.70
2016,03,11,00,25,7.10
2016,03,11,00,26,5.50
2016,03,11,00,27,5.60
2016,03,11,00,28,5.30
2016,03,11,00,29,5.60
2016,03,11,00,30,7.70
2016,03,11,00,31,6.30
2016,03,11,00,32,5.70
2016,03,11,00,33,5.60
2016,03,11,00,34,7.60
2016,03,11,00,35,9.50
2016,03,11,00,36,14.10
2016,03,11,00,37,15.20
2016,03,11,00,38,15.10
2016,03,11,00,39,13.20
2016,03,11,00,40,16.80
2016,03,11,00,41,16.30
2016,03,11,00,42,15.10
2016,03,11,00,43,12.60
2016,03,11,00,44,13.90
2016,03,11,00,45,13.70
2016,03,11,00,46,13.20
2016,03,11,00,47,10.90
2016,03,11,00,48,8.40
2016,03,11,00,49,5.40
2016,03,11,00,50,6.40
2016,03,11,00,51,7.10
2016,03,11,00,52,7.20
2016,03,11,00,53,8.00
2016,03,11,00,54,10.50
2016,03,11,00,55,8.70
2016,03,11,00,56,9.80
2016,03,11,00,57,10.80
2016,03,11,00,58,12.80
2016,03,11,00,59,10.60
2016,03,11,01,00,9.00
2016,03,11,01,01,9.10
2016,03,11,01,02,12.40
2016,03,11,01,03,10.20
2016,03,11,01,04,12.50
2016,03,11,01,05,14.40
2016,03,11,01,06,10.30
2016,03,11,01,07,8.40
2016,03,11,01,08,10.30
2016,03,11,01,09,13.40
2016,03,11,01,10,10.40
2016,03,11,01,11,9.50
2016,03,11,01,12,12.70
2016,03,11,01,13,13.10
2016,03,11,01,14,13.60
2016,03,11,01,15,14.70
2016,03,11,01,16,15.90
2016,03,11,01,17,16.70
2016,03,11,01,18,16.00
2016,03,11,01,19,16.10
2016,03,11,01,20,14.90
2016,03,11,01,21,15.10
2016,03,11,01,22,13.80
2016,03,11,01,23,12.40
2016,03,11,01,24,12.50
2016,03,11,01,25,11.60
2016,03,11,01,26,11.90
2016,03,11,01,27,11.30
2016,03,11,01,28,12.70
2016,03,11,01,29,14.10
2016,03,11,01,30,14.40
2016,03,11,01,31,14.20
2016,03,11,01,32,15.40
2016,03,11,01,33,12.60
2016,03,11,01,34,14.10
2016,03,11,01,35,15.10
2016,03,11,01,36,14.50
2016,03,11,01,37,15.40
2016,03,11,01,38,16.40
2016,03,11,01,39,19.70
2016,03,11,01,40,16.50
2016,03,11,01,41,17.50
2016,03,11,01,42,18.40
2016,03,11,01,43,19.30
2016,03,11,01,44,16.60
2016,03,11,01,45,14.10
2016,03,11,01,46,15.60
2016,03,11,01,47,18.80
2016,03,11,01,48,17.70
2016,03,11,01,49,16.50
2016,03,11,01,50,15.30
2016,03,11,01,51,14.80
2016,03,11,01,52,16.80
2016,03,11,01,53,17.60
2016,03,11,01,54,17.20
2016,03,11,01,55,16.70
2016,03,11,01,56,15.90
2016,03,11,01,57,15.30
2016,03,11,01,58,14.40
2016,03,11,01,59,12.30
2016,03,11,02,00,11.80
2016,03,11,02,01,11.20
2016,03,11,02,02,10.70
2016,03,11,02,03,11.90
2016,03,11,02,04,12.90
2016,03,11,02,05,15.50
2016,03,11,02,06,13.20
2016,03,11,02,07,12.60
2016,03,11,02,08,12.70
2016,03,11,02,09,12.70
2016,03,11,02,10,13.60
2016,03,11,02,11,13.00
2016,03,11,02,12,13.50
2016,03,11,02,13,12.30
2016,03,11,02,14,11.70
2016,03,11,02,15,12.80
2016,03,11,02,16,12.20
2016,03,11,02,17,8.80
2016,03,11,02,18,9.00
2016,03,11,02,19,14.70
2016,03,11,02,20,15.20
2016,03,11,02,21,18.00
2016,03,11,02,22,16.80
2016,03,11,02,23,16.00
2016,03,11,02,24,16.10
2016,03,11,02,25,12.30
2016,03,11,02,26,9.10
2016,03,11,02,27,12.90
2016,03,11,02,28,11.80
2016,03,11,02,29,9.70
2016,03,11,02,30,12.70
2016,03,11,02,31,12.20
2016,03,11,02,32,13.00
2016,03,11,02,33,13.70
2016,03,11,02,34,14.80
2016,03,11,02,35,13.70
2016,03,11,02,36,15.60
2016,03,11,02,37,13.90
2016,03,11,02,38,12.30
2016,03,11,02,39,11.80
2016,03,11,02,40,12.00
2016,03,11,02,41,9.90
2016,03,11,02,42,9.00
2016,03,11,02,43,9.70
2016,03,11,02,44,8.30
2016,03,11,02,45,7.90
2016,03,11,02,46,10.70
2016,03,11,02,47,12.20
2016,03,11,02,48,11.10
2016,03,11,02,49,13.70
2016,03,11,02,50,14.80
2016,03,11,02,51,15.50
2016,03,11,02,52,15.70
2016,03,11,02,53,9.60
2016,03,11,02,54,10.10
2016,03,11,02,55,8.10
2016,03,11,02,56,8.20
2016,03,11,02,57,7.70
2016,03,11,02,58,7.10
2016,03,11,02,59,6.30
2016,03,11,03,00,8.80
2016,03,11,03,01,5.60
2016,03,11,03,02,7.20
2016,03,11,03,03,8.50
2016,03,11,03,04,10.10
2016,03,11,03,05,9.20
2016,03,11,03,06,6.20
2016,03,11,03,07,6.10
2016,03,11,03,08,5.20
2016,03,11,03,09,9.60
2016,03,11,03,10,8.10
2016,03,11,03,11,10.00
2016,03,11,03,12,12.50
2016,03,11,03,13,8.90
2016,03,11,03,14,14.00
2016,03,11,03,15,15.50
2016,03,11,03,16,16.30
2016,03,11,03,17,17.90
2016,03,11,03,18,15.60
2016,03,11,03,19,12.10
2016,03,11,03,20,10.40
2016,03,11,03,21,14.80
2016,03,11,03,22,13.90
2016,03,11,03,23,15.50
2016,03,11,03,24,15.40
2016,03,11,03,25,19.90
2016,03,11,03,26,20.40
2016,03,11,03,27,17.70
2016,03,11,03,28,18.80
2016,03,11,03,29,22.10
2016,03,11,03,30,24.50
2016,03,11,03,31,21.10
2016,03,11,03,32,20.00
2016,03,11,03,33,19.50
2016,03,11,03,34,18.40
2016,03,11,03,35,18.90
2016,03,11,03,36,19.50
2016,03,11,03,37,18.10
2016,03,11,03,38,18.50
2016,03,11,03,39,19.10
2016,03,11,03,40,17.10
2016,03,11,03,41,19.10
2016,03,11,03,42,21.60
2016,03,11,03,43,21.70
2016,03,11,03,44,20.00
2016,03,11,03,45,18.40
2016,03,11,03,46,16.20
2016,03,11,03,47,15.80
2016,03,11,03,48,16.50
2016,03,11,03,49,15.00
2016,03,11,03,50,13.60
2016,03,11,03,51,11.40
2016,03,11,03,52,8.20
2016,03,11,03,53,5.90
2016,03,11,03,54,7.80
2016,03,11,03,55,12.50
2016,03,11,03,56,8.90
2016,03,11,03,57,14.30
2016,03,11,03,58,12.40
2016,03,11,03,59,17.50
2016,03,11,04,00,16.00
2016,03,11,04,01,15.10
2016,03,11,04,02,13.90
2016,03,11,04,03,12.80
2016,03,11,04,04,14.50
2016,03,11,04,05,13.10
2016,03,11,04,06,11.80
2016,03,11,04,07,12.90
2016,03,11,04,08,13.00
2016,03,11,04,09,11.50
2016,03,11,04,10,11.10
2016,03,11,04,11,11.30
2016,03,11,04,12,12.30
2016,03,11,04,13,11.20
2016,03,11,04,14,11.50
2016,03,11,04,15,9.80
2016,03,11,04,16,8.60
2016,03,11,04,17,8.90
2016,03,11,04,18,10.30
2016,03,11,04,19,8.30
2016,03,11,04,20,8.10
2016,03,11,04,21,7.90
2016,03,11,04,22,7.90
2016,03,11,04,23,8.60
2016,03,11,04,24,7.50
2016,03,11,04,25,8.00
2016,03,11,04,26,6.10
2016,03,11,04,27,8.10
2016,03,11,04,28,8.20
2016,03,11,04,29,7.50
2016,03,11,04,30,6.20
2016,03,11,04,31,6.90
2016,03,11,04,32,7.70
2016,03,11,04,33,8.70
2016,03,11,04,34,8.80
2016,03,11,04,35,9.50
2016,03,11,04,36,8.20
2016,03,11,04,37,8.50
2016,03,11,04,38,8.30
2016,03,11,04,39,8.30
2016,03,11,04,40,11.60
2016,03,11,04,41,13.30
2016,03,11,04,42,13.80
2016,03,11,04,43,10.20
2016,03,11,04,44,9.00
2016,03,11,04,45,7.80
2016,03,11,04,46,7.40
2016,03,11,04,47,7.80
2016,03,11,04,48,8.50
2016,03,11,04,49,6.80
2016,03,11,04,50,8.50
2016,03,11,04,51,7.20
2016,03,11,04,52,6.10
2016,03,11,04,53,6.70
2016,03,11,04,54,9.30
2016,03,11,04,55,10.30
2016,03,11,04,56,9.80
2016,03,11,04,57,12.40
2016,03,11,04,58,11.40
2016,03,11,04,59,12.30
2016,03,11,05,00,9.60
2016,03,11,05,01,7.80
2016,03,11,05,02,5.70
2016,03,11,05,03,4.90
2016,03,11,05,04,4.20
2016,03,11,05,05,5.60
2016,03,11,05,06,5.30
2016,03,11,05,07,5.80
2016,03,11,05,08,5.30
2016,03,11,05,09,6.70
2016,03,11,05,10,7.80
2016,03,11,05,11,8.70
2016,03,11,05,12,8.60
2016,03,11,05,13,8.30
2016,03,11,05,14,7.50
2016,03,11,05,15,7.70
2016,03,11,05,16,8.40
2016,03,11,05,17,12.20
2016,03,11,05,18,13.50
2016,03,11,05,19,14.70
2016,03,11,05,20,13.80
2016,03,11,05,21,14.50
2016,03,11,05,22,14.10
2016,03,11,05,23,13.10
2016,03,11,05,24,14.50
2016,03,11,05,25,15.10
2016,03,11,05,26,13.30
2016,03,11,05,27,13.40
2016,03,11,05,28,12.40
2016,03,11,05,29,11.50
2016,03,11,05,30,10.70
2016,03,11,05,31,10.70
2016,03,11,05,32,9.80
2016,03,11,05,33,12.40
2016,03,11,05,34,15.40
2016,03,11,05,35,13.20
2016,03,11,05,36,13.50
2016,03,11,05,37,12.90
2016,03,11,05,38,11.10
2016,03,11,05,39,9.60
2016,03,11,05,40,8.20
2016,03,11,05,41,7.20
2016,03,11,05,42,5.90
2016,03,11,05,43,6.90
2016,03,11,05,44,7.30
2016,03,11,05,45,10.80
2016,03,11,05,46,9.80
2016,03,11,05,47,10.50
2016,03,11,05,48,12.60
2016,03,11,05,49,11.30
2016,03,11,05,50,10.90
2016,03,11,05,51,11.10
2016,03,11,05,52,10.90
2016,03,11,05,53,11.70
2016,03,11,05,54,12.80
2016,03,11,05,55,13.00
2016,03,11,05,56,11.00
2016,03,11,05,57,11.80
2016,03,11,05,58,11.40
2016,03,11,05,59,10.90
2016,03,11,06,00,9.70
2016,03,11,06,01,10.30
2016,03,11,06,02,8.70
2016,03,11,06,03,9.30
2016,03,11,06,04,9.40
2016,03,11,06,05,8.00
2016,03,11,06,06,9.10
2016,03,11,06,07,11.00
2016,03,11,06,08,12.90
2016,03,11,06,09,11.20
2016,03,11,06,10,11.00
2016,03,11,06,11,10.40
2016,03,11,06,12,12.20
2016,03,11,06,13,12.60
2016,03,11,06,14,12.30
2016,03,11,06,15,11.80
2016,03,11,06,16,12.90
2016,03,11,06,17,14.00
2016,03,11,06,18,13.20
2016,03,11,06,19,11.40
2016,03,11,06,20,14.50
2016,03,11,06,21,16.00
2016,03,11,06,22,17.00
2016,03,11,06,23,16.90
2016,03,11,06,24,16.60
2016,03,11,06,25,17.90
2016,03,11,06,26,18.90
2016,03,11,06,27,17.60
2016,03,11,06,28,16.80
2016,03,11,06,29,15.00
2016,03,11,06,30,15.30
2016,03,11,06,31,14.60
2016,03,11,06,32,14.60
2016,03,11,06,33,12.80
2016,03,11,06,34,13.40
2016,03,11,06,35,15.70
2016,03,11,06,36,15.30
2016,03,11,06,37,13.30
2016,03,11,06,38,9.90
2016,03,11,06,39,12.80
2016,03,11,06,40,14.40
2016,03,11,06,41,12.20
2016,03,11,06,42,11.50
2016,03,11,06,43,12.10
2016,03,11,06,44,12.40
2016,03,11,06,45,11.60
2016,03,11,06,46,12.00
2016,03,11,06,47,13.00
2016,03,11,06,48,13.10
2016,03,11,06,49,9.50
2016,03,11,06,50,9.00
2016,03,11,06,51,11.30
2016,03,11,06,52,9.50
2016,03,11,06,53,11.40
2016,03,11,06,54,10.10
2016,03,11,06,55,10.90
2016,03,11,06,56,14.40
2016,03,11,06,57,13.00
2016,03,11,06,58,12.80
2016,03,11,06,59,12.20
2016,03,11,07,00,12.10
2016,03,11,07,01,11.60
2016,03,11,07,02,11.10
2016,03,11,07,03,10.40
2016,03,11,07,04,10.70
2016,03,11,07,05,9.60
2016,03,11,07,06,9.20
2016,03,11,07,07,8.30
2016,03,11,07,08,9.60
2016,03,11,07,09,11.80
2016,03,11,07,10,9.30
2016,03,11,07,11,9.40
2016,03,11,07,12,10.00
2016,03,11,07,13,12.20
2016,03,11,07,14,11.80
2016,03,11,07,15,9.70
2016,03,11,07,16,7.80
2016,03,11,07,17,9.90
2016,03,11,07,18,8.60
2016,03,11,07,19,10.30
2016,03,11,07,20,9.50
2016,03,11,07,21,10.40
2016,03,11,07,22,12.80
2016,03,11,07,23,10.20
2016,03,11,07,24,8.10
2016,03,11,07,25,7.90
2016,03,11,07,26,7.60
2016,03,11,07,27,6.70
2016,03,11,07,28,9.10
2016,03,11,07,29,6.30
2016,03,11,07,30,7.50
2016,03,11,07,31,7.50
2016,03,11,07,32,6.80
2016,03,11,07,33,7.20
2016,03,11,07,34,5.00
2016,03,11,07,35,6.60
2016,03,11,07,36,5.20
2016,03,11,07,37,9.30
2016,03,11,07,38,10.40
2016,03,11,07,39,10.20
2016,03,11,07,40,10.60
2016,03,11,07,41,7.70
2016,03,11,07,42,7.60
2016,03,11,07,43,7.70
2016,03,11,07,44,6.00
2016,03,11,07,45,8.90
2016,03,11,07,46,7.50
2016,03,11,07,47,8.60
2016,03,11,07,48,7.70
2016,03,11,07,49,7.70
2016,03,11,07,50,6.00
2016,03,11,07,51,8.20
2016,03,11,07,52,6.60
2016,03,11,07,53,6.80
2016,03,11,07,54,7.20
2016,03,11,07,55,9.20
2016,03,11,07,56,9.00
2016,03,11,07,57,9.10
2016,03,11,07,58,8.20
2016,03,11,07,59,5.90
2016,03,11,08,00,6.20
2016,03,11,08,01,7.70
2016,03,11,08,02,11.00
2016,03,11,08,03,10.20
2016,03,11,08,04,12.90
2016,03,11,08,05,13.70
2016,03,11,08,06,9.00
2016,03,11,08,07,8.10
2016,03,11,08,08,10.20
2016,03,11,08,09,11.00
2016,03,11,08,10,11.00
2016,03,11,08,11,11.50
2016,03,11,08,12,10.10
2016,03,11,08,13,8.20
2016,03,11,08,14,12.30
2016,03,11,08,15,8.90
2016,03,11,08,16,7.40
2016,03,11,08,17,8.20
2016,03,11,08,18,7.50
2016,03,11,08,19,6.70
2016,03,11,08,20,7.90
2016,03,11,08,21,9.80
2016,03,11,08,22,11.20
2016,03,11,08,23,11.10
2016,03,11,08,24,9.60
2016,03,11,08,25,7.40
2016,03,11,08,26,10.80
2016,03,11,08,27,13.20
2016,03,11,08,28,8.70
2016,03,11,08,29,9.70
2016,03,11,08,30,13.00
2016,03,11,08,31,9.20
2016,03,11,08,32,12.30
2016,03,11,08,33,12.20
2016,03,11,08,34,8.00
2016,03,11,08,35,9.10
2016,03,11,08,36,8.30
2016,03,11,08,37,6.80
2016,03,11,08,38,7.20
2016,03,11,08,39,10.50
2016,03,11,08,40,9.20
2016,03,11,08,41,8.20
2016,03,11,08,42,10.90
2016,03,11,08,43,11.30
2016,03,11,08,44,11.80
2016,03,11,08,45,13.30
2016,03,11,08,46,9.00
2016,03,11,08,47,11.30
2016,03,11,08,48,12.40
2016,03,11,08,49,13.20
2016,03,11,08,50,11.30
2016,03,11,08,51,11.10
2016,03,11,08,52,10.60
2016,03,11,08,53,11.80
2016,03,11,08,54,12.40
2016,03,11,08,55,13.70
2016,03,11,08,56,14.80
2016,03,11,08,57,14.00
2016,03,11,08,58,14.40
2016,03,11,08,59,14.40
2016,03,11,09,00,15.20
2016,03,11,09,01,13.10
2016,03,11,09,02,10.50
2016,03,11,09,03,14.40
2016,03,11,09,04,15.00
2016,03,11,09,05,15.60
2016,03,11,09,06,11.90
2016,03,11,09,07,13.40
2016,03,11,09,08,14.80
2016,03,11,09,09,15.00
2016,03,11,09,10,16.90
2016,03,11,09,11,17.40
2016,03,11,09,12,18.90
2016,03,11,09,13,15.70
2016,03,11,09,14,17.30
2016,03,11,09,15,18.10
2016,03,11,09,16,16.40
2016,03,11,09,17,16.80
2016,03,11,09,18,13.20
2016,03,11,09,19,12.20
2016,03,11,09,20,12.90
2016,03,11,09,21,12.30
2016,03,11,09,22,11.70
2016,03,11,09,23,12.80
2016,03,11,09,24,12.00
2016,03,11,09,25,10.80
2016,03,11,09,26,9.40
2016,03,11,09,27,10.80
2016,03,11,09,28,12.70
2016,03,11,09,29,12.10
2016,03,11,09,30,12.30
2016,03,11,09,31,14.40
2016,03,11,09,32,13.90
2016,03,11,09,33,13.70
2016,03,11,09,34,15.30
2016,03,11,09,35,12.20
2016,03,11,09,36,14.50
2016,03,11,09,37,14.50
2016,03,11,09,38,14.50
2016,03,11,09,39,14.50
2016,03,11,09,40,14.50
2016,03,11,09,41,14.50
2016,03,11,09,42,13.50
2016,03,11,09,43,13.40
2016,03,11,09,44,15.20
2016,03,11,09,45,14.50
2016,03,11,09,46,15.20
2016,03,11,09,47,15.20
2016,03,11,09,48,14.20
2016,03,11,09,49,15.10
2016,03,11,09,50,15.60
2016,03,11,09,51,14.10
2016,03,11,09,52,13.20
2016,03,11,09,53,16.80
2016,03,11,09,54,13.90
2016,03,11,09,55,13.30
2016,03,11,09,56,12.40
2016,03,11,09,57,10.10
2016,03,11,09,58,9.70
2016,03,11,09,59,11.90
2016,03,11,10,00,12.00
2016,03,11,10,01,12.70
2016,03,11,10,02,8.60
2016,03,11,10,03,9.30
2016,03,11,10,04,10.50
2016,03,11,10,05,9.90
2016,03,11,10,06,14.30
2016,03,11,10,07,17.00
2016,03,11,10,08,16.30
2016,03,11,10,09,15.60
2016,03,11,10,10,17.50
2016,03,11,10,11,17.30
2016,03,11,10,12,16.10
2016,03,11,10,13,13.80
2016,03,11,10,14,14.80
2016,03,11,10,15,15.40
2016,03,11,10,16,14.80
2016,03,11,10,17,17.30
2016,03,11,10,18,16.90
2016,03,11,10,19,18.10
2016,03,11,10,20,17.90
2016,03,11,10,21,14.70
2016,03,11,10,22,15.40
2016,03,11,10,23,16.10
2016,03,11,10,24,17.10
2016,03,11,10,25,16.30
2016,03,11,10,26,15.30
2016,03,11,10,27,14.70
2016,03,11,10,28,14.50
2016,03,11,10,29,14.80
2016,03,11,10,30,13.30
2016,03,11,10,31,16.10
2016,03,11,10,32,13.40
2016,03,11,10,33,17.10
2016,03,11,10,34,20.40
2016,03,11,10,35,16.40
2016,03,11,10,36,16.40
2016,03,11,10,37,14.30
2016,03,11,10,38,17.50
2016,03,11,10,39,19.30
2016,03,11,10,40,16.90
2016,03,11,10,41,16.60
2016,03,11,10,42,15.50
2016,03,11,10,43,16.10
2016,03,11,10,44,18.00
2016,03,11,10,45,17.30
2016,03,11,10,46,14.90
2016,03,11,10,47,17.40
2016,03,11,10,48,18.70
2016,03,11,10,49,17.50
2016,03,11,10,50,17.60
2016,03,11,10,51,19.50
2016,03,11,10,52,19.00
2016,03,11,10,53,19.20
2016,03,11,10,54,19.10
2016,03,11,10,55,18.00
2016,03,11,10,56,14.40
2016,03,11,10,57,13.60
2016,03,11,10,58,16.10
2016,03,11,10,59,15.40
2016,03,11,11,00,13.40
2016,03,11,11,01,11.80
2016,03,11,11,02,16.60
2016,03,11,11,03,17.90
2016,03,11,11,04,16.00
2016,03,11,11,05,14.60
2016,03,11,11,06,18.60
2016,03,11,11,07,20.00
2016,03,11,11,08,22.60
2016,03,11,11,09,17.80
2016,03,11,11,10,14.60
2016,03,11,11,11,15.30
2016,03,11,11,12,14.30
2016,03,11,11,13,16.70
2016,03,11,11,14,15.40
2016,03,11,11,15,18.50
2016,03,11,11,16,16.40
2016,03,11,11,17,18.00
2016,03,11,11,18,19.20
2016,03,11,11,19,18.60
2016,03,11,11,20,19.50
2016,03,11,11,21,18.00
2016,03,11,11,22,17.30
2016,03,11,11,23,18.00
2016,03,11,11,24,20.10
2016,03,11,11,25,22.90
2016,03,11,11,26,22.20
2016,03,11,11,27,19.30
2016,03,11,11,28,16.40
2016,03,11,11,29,20.50
2016,03,11,11,30,17.30
2016,03,11,11,31,17.20
2016,03,11,11,32,17.00
2016,03,11,11,33,17.70
2016,03,11,11,34,12.90
2016,03,11,11,35,16.10
2016,03,11,11,36,14.80
2016,03,11,11,37,17.10
2016,03,11,11,38,16.60
2016,03,11,11,39,14.00
2016,03,11,11,40,14.10
2016,03,11,11,41,16.10
2016,03,11,11,42,13.00
2016,03,11,11,43,15.20
2016,03,11,11,44,15.50
2016,03,11,11,45,16.00
2016,03,11,11,46,16.50
2016,03,11,11,47,14.80
2016,03,11,11,48,14.50
2016,03,11,11,49,17.10
2016,03,11,11,50,20.50
2016,03,11,11,51,18.70
2016,03,11,11,52,17.30
2016,03,11,11,53,19.60
2016,03,11,11,54,20.50
2016,03,11,11,55,18.30
2016,03,11,11,56,17.10
2016,03,11,11,57,17.60
2016,03,11,11,58,14.90
2016,03,11,11,59,16.40
2016,03,11,12,00,14.10
2016,03,11,12,01,16.00
2016,03,11,12,02,17.90
2016,03,11,12,03,16.80
2016,03,11,12,04,19.30
2016,03,11,12,05,22.30
2016,03,11,12,06,20.00
2016,03,11,12,07,20.50
2016,03,11,12,08,16.50
2016,03,11,12,09,19.60
2016,03,11,12,10,19.70
2016,03,11,12,11,18.60
2016,03,11,12,12,21.50
2016,03,11,12,13,17.80
2016,03,11,12,14,19.40
2016,03,11,12,15,14.40
2016,03,11,12,16,16.80
2016,03,11,12,17,18.50
2016,03,11,12,18,19.30
2016,03,11,12,19,19.80
2016,03,11,12,20,21.70
2016,03,11,12,21,19.20
2016,03,11,12,22,17.80
2016,03,11,12,23,19.10
2016,03,11,12,24,19.50
2016,03,11,12,25,19.80
2016,03,11,12,26,19.60
2016,03,11,12,27,17.50
2016,03,11,12,28,22.90
2016,03,11,12,29,20.50
2016,03,11,12,30,19.80
2016,03,11,12,31,20.40
2016,03,11,12,32,18.40
2016,03,11,12,33,15.30
2016,03,11,12,34,16.70
2016,03,11,12,35,18.50
2016,03,11,12,36,19.60
2016,03,11,12,37,18.40
2016,03,11,12,38,17.50
2016,03,11,12,39,21.00
2016,03,11,12,40,20.10
2016,03,11,12,41,18.70
2016,03,11,12,42,18.00
2016,03,11,12,43,17.70
2016,03,11,12,44,15.00
2016,03,11,12,45,17.00
2016,03,11,12,46,16.60
2016,03,11,12,47,16.90
2016,03,11,12,48,17.80
2016,03,11,12,49,19.30
2016,03,11,12,50,21.50
2016,03,11,12,51,20.60
2016,03,11,12,52,18.50
2016,03,11,12,53,20.40
2016,03,11,12,54,20.70
2016,03,11,12,55,16.10
2016,03,11,12,56,17.80
2016,03,11,12,57,15.40
2016,03,11,12,58,16.40
2016,03,11,12,59,19.40
2016,03,11,13,00,14.10
2016,03,11,13,01,13.60
2016,03,11,13,02,11.20
2016,03,11,13,03,14.40
2016,03,11,13,04,12.20
2016,03,11,13,05,10.80
2016,03,11,13,06,16.40
2016,03,11,13,07,11.00
2016,03,11,13,08,11.80
2016,03,11,13,09,15.20
2016,03,11,13,10,12.80
2016,03,11,13,11,13.50
2016,03,11,13,12,15.70
2016,03,11,13,13,14.90
2016,03,11,13,14,14.30
2016,03,11,13,15,12.30
2016,03,11,13,16,10.70
2016,03,11,13,17,10.70
2016,03,11,13,18,17.00
2016,03,11,13,19,12.70
2016,03,11,13,20,8.90
2016,03,11,13,21,17.10
2016,03,11,13,22,16.30
2016,03,11,13,23,12.70
2016,03,11,13,24,13.50
2016,03,11,13,25,16.70
2016,03,11,13,26,18.00
2016,03,11,13,27,15.40
2016,03,11,13,28,14.50
2016,03,11,13,29,13.80
2016,03,11,13,30,15.50
2016,03,11,13,31,17.40
2016,03,11,13,32,16.20
2016,03,11,13,33,17.00
2016,03,11,13,34,15.50
2016,03,11,13,35,14.40
2016,03,11,13,36,13.30
2016,03,11,13,37,15.40
2016,03,11,13,38,14.30
2016,03,11,13,39,12.20
2016,03,11,13,40,15.60
2016,03,11,13,41,16.90
2016,03,11,13,42,14.60
2016,03,11,13,43,13.20
2016,03,11,13,44,15.70
2016,03,11,13,45,14.60
2016,03,11,13,46,12.90
2016,03,11,13,47,11.80
2016,03,11,13,48,14.60
2016,03,11,13,49,13.70
2016,03,11,13,50,12.20
2016,03,11,13,51,13.80
2016,03,11,13,52,17.10
2016,03,11,13,53,14.10
2016,03,11,13,54,11.90
2016,03,11,13,55,11.50
2016,03,11,13,56,10.30
2016,03,11,13,57,9.10
2016,03,11,13,58,9.00
2016,03,11,13,59,10.50
2016,03,11,14,00,9.00
2016,03,11,14,01,9.40
2016,03,11,14,02,9.50
2016,03,11,14,03,11.20
2016,03,11,14,04,12.20
2016,03,11,14,05,11.50
2016,03,11,14,06,9.30
2016,03,11,14,07,10.30
2016,03,11,14,08,9.10
2016,03,11,14,09,7.40
2016,03,11,14,10,7.60
2016,03,11,14,11,9.40
2016,03,11,14,12,11.00
2016,03,11,14,13,10.40
2016,03,11,14,14,6.70
2016,03,11,14,15,8.80
2016,03,11,14,16,10.60
2016,03,11,14,17,10.50
2016,03,11,14,18,9.70
2016,03,11,14,19,12.00
2016,03,11,14,20,10.40
2016,03,11,14,21,9.00
2016,03,11,14,22,9.50
2016,03,11,14,23,10.50
2016,03,11,14,24,8.70
2016,03,11,14,25,7.80
2016,03,11,14,26,9.30
2016,03,11,14,27,11.60
2016,03,11,14,28,8.80
2016,03,11,14,29,9.90
2016,03,11,14,30,10.30
2016,03,11,14,31,11.10
2016,03,11,14,32,10.50
2016,03,11,14,33,9.90
2016,03,11,14,34,10.60
2016,03,11,14,35,9.20
2016,03,11,14,36,13.20
2016,03,11,14,37,8.80
2016,03,11,14,38,8.40
2016,03,11,14,39,8.90
2016,03,11,14,40,9.10
2016,03,11,14,41,9.60
2016,03,11,14,42,10.50
2016,03,11,14,43,9.50
2016,03,11,14,44,9.70
2016,03,11,14,45,11.80
2016,03,11,14,46,9.10
2016,03,11,14,47,12.40
2016,03,11,14,48,10.50
2016,03,11,14,49,9.50
2016,03,11,14,50,10.20
2016,03,11,14,51,11.50
2016,03,11,14,52,12.40
2016,03,11,14,53,10.90
2016,03,11,14,54,11.50
2016,03,11,14,55,13.00
2016,03,11,14,56,11.20
2016,03,11,14,57,15.10
2016,03,11,14,58,15.10
2016,03,11,14,59,15.90
2016,03,11,15,00,16.70
2016,03,11,15,01,15.90
2016,03,11,15,02,14.10
2016,03,11,15,03,16.70
2016,03,11,15,04,15.70
2016,03,11,15,05,17.80
2016,03,11,15,06,17.50
2016,03,11,15,07,16.90
2016,03,11,15,08,17.20
2016,03,11,15,09,14.10
2016,03,11,15,10,16.50
2016,03,11,15,11,14.10
2016,03,11,15,12,14.40
2016,03,11,15,13,12.40
2016,03,11,15,14,13.20
2016,03,11,15,15,12.50
2016,03,11,15,16,12.10
2016,03,11,15,17,12.40
2016,03,11,15,18,10.90
2016,03,11,15,19,13.50
2016,03,11,15,20,12.20
2016,03,11,15,21,12.30
2016,03,11,15,22,17.50
2016,03,11,15,23,14.90
2016,03,11,15,24,9.30
2016,03,11,15,25,13.90
2016,03,11,15,26,11.70
2016,03,11,15,27,7.40
2016,03,11,15,28,11.30
2016,03,11,15,29,12.50
2016,03,11,15,30,13.00
2016,03,11,15,31,14.50
2016,03,11,15,32,15.30
2016,03,11,15,33,13.50
2016,03,11,15,34,13.30
2016,03,11,15,35,15.30
2016,03,11,15,36,12.20
2016,03,11,15,37,11.80
2016,03,11,15,38,13.30
2016,03,11,15,39,12.70
2016,03,11,15,40,12.20
2016,03,11,15,41,9.30
2016,03,11,15,42,9.10
2016,03,11,15,43,11.30
2016,03,11,15,44,9.30
2016,03,11,15,45,12.00
2016,03,11,15,46,10.40
2016,03,11,15,47,10.80
2016,03,11,15,48,11.40
2016,03,11,15,49,13.30
2016,03,11,15,50,13.70
2016,03,11,15,51,13.40
2016,03,11,15,52,11.70
2016,03,11,15,53,12.60
2016,03,11,15,54,14.90
2016,03,11,15,55,14.10
2016,03,11,15,56,13.50
2016,03,11,15,57,15.70
2016,03,11,15,58,16.60
2016,03,11,15,59,17.70
2016,03,11,16,00,18.50
2016,03,11,16,01,19.00
2016,03,11,16,02,18.50
2016,03,11,16,03,18.60
2016,03,11,16,04,20.20
2016,03,11,16,05,20.30
2016,03,11,16,06,18.80
2016,03,11,16,07,18.80
2016,03,11,16,08,18.50
2016,03,11,16,09,17.90
2016,03,11,16,10,16.90
2016,03,11,16,11,16.40
2016,03,11,16,12,15.50
2016,03,11,16,13,15.80
2016,03,11,16,14,14.90
2016,03,11,16,15,17.50
2016,03,11,16,16,16.60
2016,03,11,16,17,16.50
2016,03,11,16,18,13.70
2016,03,11,16,19,13.50
2016,03,11,16,20,13.80
2016,03,11,16,21,15.50
2016,03,11,16,22,13.50
2016,03,11,16,23,13.30
2016,03,11,16,24,12.30
2016,03,11,16,25,11.40
2016,03,11,16,26,11.10
2016,03,11,16,27,11.50
2016,03,11,16,28,10.00
2016,03,11,16,29,11.20
2016,03,11,16,30,9.60
2016,03,11,16,31,8.90
2016,03,11,16,32,8.00
2016,03,11,16,33,8.50
2016,03,11,16,34,11.50
2016,03,11,16,35,9.20
2016,03,11,16,36,7.00
2016,03,11,16,37,6.40
2016,03,11,16,38,8.30
2016,03,11,16,39,9.40
2016,03,11,16,40,8.20
2016,03,11,16,41,10.70
2016,03,11,16,42,7.60
2016,03,11,16,43,8.20
2016,03,11,16,44,8.90
2016,03,11,16,45,9.30
2016,03,11,16,46,10.20
2016,03,11,16,47,9.30
2016,03,11,16,48,14.00
2016,03,11,16,49,12.60
2016,03,11,16,50,11.00
2016,03,11,16,51,12.10
2016,03,11,16,52,9.20
2016,03,11,16,53,10.40
2016,03,11,16,54,12.20
2016,03,11,16,55,11.00
2016,03,11,16,56,9.70
2016,03,11,16,57,12.10
2016,03,11,16,58,13.00
2016,03,11,16,59,11.30
2016,03,11,17,00,9.00
2016,03,11,17,01,10.30
2016,03,11,17,02,8.30
2016,03,11,17,03,7.70
2016,03,11,17,04,6.50
2016,03,11,17,05,6.40
2016,03,11,17,06,5.60
2016,03,11,17,07,5.90
2016,03,11,17,08,7.50
2016,03,11,17,09,9.70
2016,03,11,17,10,12.20
2016,03,11,17,11,13.90
2016,03,11,17,12,13.90
2016,03,11,17,13,12.90
2016,03,11,17,14,11.80
2016,03,11,17,15,9.70
2016,03,11,17,16,10.70
2016,03,11,17,17,11.80
2016,03,11,17,18,11.20
2016,03,11,17,19,9.20
2016,03,11,17,20,12.50
2016,03,11,17,21,9.40
2016,03,11,17,22,9.90
2016,03,11,17,23,9.20
2016,03,11,17,24,8.90
2016,03,11,17,25,9.80
2016,03,11,17,26,12.50
2016,03,11,17,27,12.20
2016,03,11,17,28,13.20
2016,03,11,17,29,12.40
2016,03,11,17,30,13.40
2016,03,11,17,31,13.30